CW6407 Weather Reports


Display with metric or nautical units.
time (UTC)temp
F
wind
direction
speed
MPH
gust
MPH
rain 1hr
in
rain 24hr
in
rain mn
in
humidity
%
barometer
mb
20220122063732 34 260 3.0 9.0 0.00 0.00 0.00 92 1027.6
20220122062732 34 278 2.0 9.0 0.00 0.00 0.00 92 1027.2
20220122061734 34 248 5.0 13.0 0.00 0.00 0.00 92 1027.2
20220122055733 34 278 5.0 12.0 0.00 0.00 0.00 92 1027.2
20220122054734 34 272 5.0 13.0 0.00 0.00 0.00 92 1027.2
20220122053731 34 256 5.0 13.0 0.00 0.00 0.00 92 1027.0
20220122051735 34 275 4.0 13.0 0.00 0.00 0.00 92 1026.7
20220122050732 34 289 5.0 13.0 0.00 0.00 0.00 92 1026.2
20220122045734 34 263 5.0 17.0 0.00 0.00 0.00 92 1026.1
20220122044731 34 271 6.0 15.0 0.00 0.00 0.00 92 1026.1
20220122043732 34 309 6.0 14.0 0.00 0.00 0.00 92 1026.1
20220122041732 34 251 6.0 16.0 0.00 0.00 0.00 92 1026.1
20220122034733 33 288 4.0 13.0 0.00 0.00 0.00 92 1026.0
20220122033730 33 257 4.0 10.0 0.00 0.00 0.00 92 1026.0
20220122032733 33 247 6.0 12.0 0.00 0.00 0.00 92 1025.9
20220122031731 33 272 5.0 13.0 0.00 0.00 0.00 92 1025.9
20220122023730 33 258 6.0 10.0 0.00 0.00 0.00 92 1026.0
20220122022732 33 247 5.0 9.0 0.00 0.00 0.00 92 1026.1
20220122021731 33 269 5.0 13.0 0.00 0.00 0.00 92 1026.1
20220122020732 33 245 5.0 9.0 0.00 0.00 0.00 92 1026.2
20220122014733 32 245 6.0 10.0 0.00 0.00 0.00 92 1026.3
20220122013730 32 246 7.0 13.0 0.00 0.00 0.00 92 1026.2
20220122012733 32 262 10.0 15.0 0.00 0.00 0.00 92 1026.2
20220122011732 32 232 7.0 13.0 0.00 0.00 0.00 92 1026.2
20220122010731 32 264 8.0 17.0 0.00 0.00 0.00 92 1026.4
20220122005731 32 248 9.0 15.0 0.00 0.00 0.00 92 1026.4
20220122004734 32 244 7.0 15.0 0.00 0.00 0.00 92 1026.4
20220122003734 32 249 7.0 15.0 0.00 0.00 0.00 92 1026.7
20220122002732 32 244 9.0 18.0 0.00 0.00 0.00 92 1026.8
20220122001733 32 240 10.0 17.0 0.00 0.00 0.00 92 1026.8
20220122000732 32 232 9.0 17.0 0.00 0.00 0.00 92 1026.8
20220121235731 32 231 11.0 17.0 0.00 0.00 0.00 92 1027.0
20220121232731 31 239 10.0 18.0 0.00 0.00 0.00 92 1027.5
20220121231732 31 224 11.0 20.0 0.00 0.00 0.00 92 1027.5
20220121230732 31 244 9.0 17.0 0.00 0.00 0.00 92 1027.7
20220121224733 31 243 7.0 15.0 0.00 0.00 0.00 92 1028.0
20220121223732 31 242 10.0 15.0 0.00 0.00 0.00 92 1028.1
20220121222732 31 223 6.0 15.0 0.00 0.00 0.00 92 1028.4
20220121221732 31 240 7.0 12.0 0.00 0.00 0.00 92 1028.4
20220121220732 31 227 9.0 15.0 0.00 0.00 0.00 92 1028.7
20220121215731 31 234 5.0 12.0 0.00 0.00 0.00 92 1028.8
20220121213731 31 237 5.0 9.0 0.00 0.00 0.00 92 1029.2
20220121212731 30 255 5.0 9.0 0.00 0.00 0.00 92 1029.5
20220121211731 30 258 5.0 10.0 0.00 0.00 0.00 92 1029.5
20220121210732 30 244 6.0 9.0 0.00 0.00 0.00 92 1030.1
20220121204733 29 249 2.0 6.0 0.00 0.00 0.00 91 1030.2
20220121201731 27 251 3.0 7.0 0.00 0.00 0.00 91 1030.8
20220121200731 26 271 2.0 5.0 0.00 0.00 0.00 91 1031.3
20220121195731 26 272 1.0 3.0 0.00 0.00 0.00 91 1031.6
20220121193730 25 272 0.0 2.0 0.00 0.00 0.00 90 1031.6
20220121192730 25 272 2.0 3.0 0.00 0.00 0.00 90 1031.6
20220121191730 24 272 0.0 0.0 0.00 0.00 0.00 90 1031.6
20220121190731 24 272 0.0 0.0 0.00 0.00 0.00 89 1031.6
20220121185730 23 272 0.0 0.0 0.00 0.00 0.00 89 1031.6
20220121183730 22 272 0.0 2.0 0.00 0.00 0.00 87 1031.6
20220121182731 22 272 1.0 3.0 0.00 0.00 0.00 87 1031.8
20220121181729 22 272 0.0 0.0 0.00 0.00 0.00 86 1031.8
20220121180730 23 272 0.0 0.0 0.00 0.00 0.00 85 1031.2
20220121175732 23 272 0.0 0.0 0.00 0.00 0.00 85 1031.3
20220121174729 23 272 0.0 0.0 0.00 0.00 0.00 85 1031.3
20220121172729 25 272 0.0 0.0 0.00 0.00 0.00 84 1031.0
20220121165730 26 272 1.0 5.0 0.00 0.00 0.00 83 1030.7
20220121164730 26 272 2.0 5.0 0.00 0.00 0.00 83 1030.7
20220121163729 27 272 1.0 3.0 0.00 0.00 0.00 83 1030.5
20220121162729 27 272 1.0 7.0 0.00 0.00 0.00 83 1030.5
20220121161728 27 252 2.0 7.0 0.00 0.00 0.00 82 1030.5
20220121160728 28 263 1.0 10.0 0.00 0.00 0.00 82 1030.2
20220121155728 28 261 2.0 6.0 0.00 0.00 0.00 82 1030.0
20220121153729 29 283 5.0 10.0 0.00 0.00 0.00 82 1029.9
20220121152728 29 258 4.0 10.0 0.00 0.00 0.00 81 1029.9
20220121151727 29 263 7.0 12.0 0.00 0.01 0.00 82 1029.9
20220121150728 29 270 4.0 7.0 0.00 0.01 0.00 82 1029.7
20220121145728 30 281 5.0 14.0 0.00 0.01 0.00 82 1029.7
20220121143728 30 286 7.0 10.0 0.00 0.01 0.00 85 1029.7
20220121142728 30 241 6.0 16.0 0.00 0.02 0.00 85 1029.6
20220121141728 30 285 4.0 12.0 0.00 0.02 0.00 86 1029.6
20220121135728 30 273 6.0 15.0 0.00 0.02 0.00 86 1029.0
20220121134727 30 257 6.0 10.0 0.00 0.02 0.00 86 1029.0
20220121133728 30 248 5.0 12.0 0.00 0.02 0.00 87 1029.2
20220121132728 30 255 5.0 13.0 0.00 0.02 0.00 88 1029.0
20220121131729 30 236 5.0 14.0 0.00 0.02 0.00 89 1029.0
20220121124729 29 244 8.0 15.0 0.00 0.02 0.00 88 1029.2
20220121120727 29 233 7.0 16.0 0.00 0.02 0.00 86 1029.4
20220121114729 29 243 7.0 13.0 0.00 0.02 0.00 86 1029.2
20220121105727 28 244 10.0 17.0 0.00 0.02 0.00 85 1030.1
20220121104727 28 250 8.0 20.0 0.00 0.02 0.00 84 1030.1
20220121103728 28 226 12.0 18.0 0.00 0.02 0.00 83 1030.1
20220121102729 28 223 5.0 21.0 0.00 0.02 0.00 83 1030.1
20220121100728 28 247 11.0 17.0 0.00 0.02 0.00 82 1030.2
20220121095728 28 244 8.0 14.0 0.00 0.02 0.00 82 1030.5
20220121094729 28 230 4.0 7.0 0.00 0.02 0.00 83 1030.5
20220121093727 27 244 3.0 12.0 0.00 0.02 0.00 83 1030.3
20220121092726 26 254 7.0 12.0 0.00 0.02 0.00 85 1030.6
20220121090729 21 233 5.0 9.0 0.00 0.02 0.00 90 1031.0
20220121084727 19 234 0.0 0.0 0.00 0.02 0.00 90 1030.8
20220121083727 19 234 0.0 0.0 0.00 0.02 0.00 90 1030.9
20220121075727 16 234 0.0 0.0 0.00 0.02 0.00 89 1031.4
20220121074726 16 234 0.0 0.0 0.00 0.02 0.00 88 1031.4
20220121073726 16 234 0.0 0.0 0.00 0.02 0.00 88 1031.4
20220121072727 16 234 0.0 0.0 0.00 0.02 0.00 87 1031.4
20220121071726 16 234 0.0 0.0 0.00 0.02 0.00 87 1031.4
20220121065727 16 234 0.0 0.0 0.00 0.02 0.00 86 1031.3
20220121064726 16 234 0.0 2.0 0.00 0.02 0.00 86 1031.3